Location: Altleiningen
(49.5078°N, 8.0741°E)
Time: 04:03:57
(UTC+00:00)

COSMOS 2428 - Pass Details

Date: 03 March 2021
Orbit: 846 x 857 km, 70.9° (Epoch: 11 April)

Event Time Altitude Azimuth Distance (km) Brightness Sun altitude
Rises 21:01:51 0° 235° (SW) 3,399 6.0 -35.8°
Reaches altitude 10° 21:04:28 10° 244° (WSW) 2,468 5.3 -36.1°
Enters shadow 21:07:11 25° 264° (W) 1,646 4.5 -36.4°
Exits shadow 21:13:54 15° 12° (NNE) 2,135 5.0 -37.2°
Drops below altitude 10° 21:14:58 10° 18° (NNE) 2,486 5.3 -37.4°
Sets 21:17:38 0° 27° (NNE) 3,427 6.0 -37.7°
